Location: Newark
(7.0858°N, 171.3717°E)
Time: 07:15:55
(UTC+00:00)

Courier 1B - Pass Details

Date: 29 November 2020
Orbit: 962 x 1209 km, 28.3° (Epoch: 20 January)

Event Time Altitude Azimuth Distance (km) Brightness Sun altitude
Rises 07:59:18 0° 251° (WSW) 3,630 11.9 -25.0°
Reaches altitude 10° 08:01:58 10° 255° (WSW) 2,686 10.8 -25.6°
Maximum altitude 08:08:18 57° 333° (NNW) 1,134 7.8 -27.1°
Enters shadow 08:09:20 51° 7° (N) 1,206 7.7 -27.3°
Drops below altitude 10° 08:14:51 10° 50° (NE) 2,772 - -28.6°
Sets 08:17:39 0° 55° (NE) 3,756 - -29.2°
